| time (UTC) | temp C | wind direction | speed KPH | gust KPH | rain 1hr cm | rain 24hr cm | rain mn cm | humidity % | barometer mb |
| 20260508121553 | 15 | 257 | 4.8 | 16.1 | 0.00 | 0.05 | 0.05 | 70 | 1013.8 |
| 20260508120052 | 16 | 249 | 6.4 | 14.5 | 0.00 | 0.05 | 0.05 | 68 | 1013.8 |
| 20260508114555 | 16 | 232 | 6.4 | 17.7 | 0.00 | 0.05 | 0.05 | 67 | 1013.9 |
| 20260508113121 | 16 | 252 | 8.0 | 17.7 | 0.00 | 0.05 | 0.05 | 66 | 1013.9 |
| 20260508111547 | 15 | 165 | 1.6 | 11.3 | 0.00 | 0.05 | 0.05 | 70 | 1014.0 |
| 20260508110045 | 15 | 209 | 4.8 | 9.7 | 0.00 | 0.05 | 0.05 | 72 | 1014.4 |
| 20260508104554 | 15 | 221 | 1.6 | 6.4 | 0.00 | 0.05 | 0.05 | 71 | 1014.3 |
| 20260508103045 | 15 | 235 | 4.8 | 11.3 | 0.00 | 0.05 | 0.05 | 71 | 1014.4 |
| 20260508101545 | 15 | 245 | 1.6 | 9.7 | 0.00 | 0.05 | 0.05 | 75 | 1014.4 |
| 20260508100041 | 14 | 169 | 1.6 | 6.4 | 0.00 | 0.05 | 0.05 | 76 | 1014.3 |
| 20260508094538 | 14 | 196 | 3.2 | 9.7 | 0.00 | 0.05 | 0.05 | 75 | 1014.2 |
| 20260508093036 | 14 | 190 | 1.6 | 9.7 | 0.00 | 0.05 | 0.05 | 77 | 1014.1 |
| 20260508091533 | 13 | 210 | 1.6 | 11.3 | 0.00 | 0.05 | 0.05 | 83 | 1014.2 |
| 20260508090038 | 13 | 212 | 0.0 | 8.0 | 0.00 | 0.05 | 0.05 | 87 | 1014.0 |
| 20260508084527 | 12 | 73 | 0.0 | 4.8 | 0.00 | 0.05 | 0.05 | 93 | 1014.0 |
| 20260508083025 | 12 | 330 | 0.0 | 1.6 | 0.00 | 0.05 | 0.05 | 95 | 1013.9 |
| 20260508081523 | 12 | 89 | 0.0 | 1.6 | 0.00 | 0.05 | 0.05 | 96 | 1013.9 |
| 20260508080018 | 11 | 304 | 0.0 | 1.6 | 0.00 | 0.05 | 0.05 | 97 | 1013.9 |
| 20260508074518 | 10 | 221 | 0.0 | 1.6 | 0.00 | 0.05 | 0.05 | 97 | 1014.0 |
| 20260508073016 | 10 | 221 | 0.0 | 1.6 | 0.00 | 0.05 | 0.05 | 97 | 1014.0 |
| 20260508071514 | 10 | 250 | 0.0 | 1.6 | 0.00 | 0.05 | 0.05 | 97 | 1013.9 |
| 20260508070013 | 10 | 151 | 0.0 | 0.0 | 0.00 | 0.05 | 0.05 | 97 | 1013.6 |
| 20260508064542 | 10 | 151 | 0.0 | 0.0 | 0.00 | 0.05 | 0.05 | 97 | 1013.5 |
| 20260508063016 | 10 | 168 | 0.0 | 0.0 | 0.03 | 0.05 | 0.05 | 96 | 1013.3 |
| 20260508061512 | 10 | 219 | 0.0 | 0.0 | 0.05 | 0.05 | 0.05 | 96 | 1013.0 |
| 20260508060010 | 10 | 219 | 0.0 | 1.6 | 0.05 | 0.05 | 0.05 | 96 | 1013.2 |
| 20260508054512 | 10 | 222 | 0.0 | 1.6 | 0.05 | 0.05 | 0.05 | 96 | 1013.4 |
| 20260508053009 | 10 | 324 | 0.0 | 0.0 | 0.05 | 0.05 | 0.05 | 96 | 1012.7 |
| 20260508051511 | 10 | 324 | 0.0 | 0.0 | 0.03 | 0.03 | 0.03 | 96 | 1013.1 |
| 20260508050013 | 10 | 321 | 0.0 | 3.2 | 0.03 | 0.03 | 0.03 | 96 | 1012.9 |
| 20260508044505 | 10 | 194 | 0.0 | 6.4 | 0.00 | 0.00 | 0.00 | 96 | 1013.2 |
| 20260508043004 | 10 | 93 | 0.0 | 1.6 | 0.00 | 0.00 | 0.00 | 96 | 1013.1 |
| 20260508041504 | 9 | 250 | 0.0 | 1.6 | 0.00 | 0.00 | 0.00 | 96 | 1012.6 |
| 20260508040001 | 9 | 250 | 0.0 | 0.0 | 0.00 | 0.00 | 0.00 | 96 | 1012.9 |
| 20260508034501 | 9 | 250 | 0.0 | 0.0 | 0.00 | 0.00 | 0.00 | 96 | 1012.8 |
| 20260508033100 | 9 | 250 | 0.0 | 0.0 | 0.00 | 0.00 | 0.00 | 95 | 1012.8 |
| 20260508031607 | 10 | 250 | 0.0 | 1.6 | 0.00 | 0.00 | 0.00 | 96 | 1012.7 |
| 20260508030106 | 10 | 250 | 0.0 | 0.0 | 0.00 | 0.00 | 0.00 | 95 | 1012.9 |
| 20260508024557 | 10 | 250 | 0.0 | 1.6 | 0.00 | 0.00 | 0.00 | 95 | 1013.0 |
| 20260508023056 | 10 | 250 | 0.0 | 1.6 | 0.00 | 0.00 | 0.00 | 95 | 1013.2 |
| 20260508021603 | 10 | 250 | 0.0 | 0.0 | 0.00 | 0.00 | 0.00 | 96 | 1013.2 |
| 20260508020053 | 10 | 250 | 0.0 | 0.0 | 0.00 | 0.00 | 0.00 | 95 | 1013.4 |
| 20260508014551 | 9 | 250 | 0.0 | 1.6 | 0.00 | 0.00 | 0.00 | 95 | 1013.6 |
| 20260508013048 | 9 | 250 | 0.0 | 0.0 | 0.00 | 0.00 | 0.00 | 95 | 1013.8 |
| 20260508011551 | 9 | 250 | 0.0 | 0.0 | 0.00 | 0.00 | 0.00 | 94 | 1014.0 |
| 20260508010044 | 9 | 250 | 0.0 | 0.0 | 0.00 | 0.00 | 0.00 | 94 | 1014.1 |
| 20260508004544 | 9 | 250 | 0.0 | 0.0 | 0.00 | 0.00 | 0.00 | 94 | 1014.0 |
| 20260508003043 | 9 | 248 | 0.0 | 1.6 | 0.00 | 0.00 | 0.00 | 93 | 1014.2 |
| 20260508001541 | 9 | 251 | 0.0 | 0.0 | 0.00 | 0.00 | 0.00 | 93 | 1014.2 |
| 20260508000052 | 10 | 251 | 0.0 | 0.0 | 0.00 | 0.00 | 0.00 | 92 | 1014.3 |
| 20260507234543 | 10 | 251 | 0.0 | 0.0 | 0.00 | 0.00 | 0.00 | 92 | 1014.5 |
| 20260507233036 | 10 | 251 | 0.0 | 1.6 | 0.00 | 0.00 | 0.00 | 92 | 1014.6 |
| 20260507231537 | 10 | 248 | 0.0 | 0.0 | 0.00 | 0.00 | 0.00 | 91 | 1014.7 |
| 20260507230029 | 10 | 248 | 0.0 | 3.2 | 0.00 | 0.00 | 0.00 | 91 | 1014.7 |
| 20260507224530 | 10 | 248 | 0.0 | 0.0 | 0.00 | 0.00 | 0.00 | 90 | 1014.8 |
| 20260507223029 | 11 | 249 | 0.0 | 1.6 | 0.00 | 0.00 | 0.00 | 91 | 1015.2 |
| 20260507221530 | 10 | 103 | 0.0 | 0.0 | 0.00 | 0.00 | 0.00 | 91 | 1015.3 |
| 20260507220027 | 11 | 103 | 0.0 | 1.6 | 0.00 | 0.00 | 0.00 | 90 | 1015.3 |
| 20260507214530 | 11 | 98 | 0.0 | 1.6 | 0.00 | 0.00 | 0.00 | 89 | 1015.6 |
| 20260507213027 | 11 | 99 | 0.0 | 0.0 | 0.00 | 0.00 | 0.00 | 87 | 1015.7 |
| 20260507211533 | 11 | 99 | 0.0 | 1.6 | 0.00 | 0.00 | 0.00 | 85 | 1015.7 |
| 20260507210025 | 12 | 99 | 0.0 | 1.6 | 0.00 | 0.00 | 0.00 | 84 | 1015.7 |
| 20260507204525 | 12 | 99 | 0.0 | 3.2 | 0.00 | 0.00 | 0.00 | 84 | 1015.7 |
| 20260507203025 | 12 | 93 | 0.0 | 0.0 | 0.00 | 0.00 | 0.00 | 82 | 1015.6 |
| 20260507201524 | 12 | 93 | 0.0 | 1.6 | 0.00 | 0.00 | 0.00 | 81 | 1015.2 |
| 20260507200024 | 12 | 216 | 0.0 | 6.4 | 0.00 | 0.00 | 0.00 | 80 | 1015.0 |
| 20260507194523 | 13 | 238 | 0.0 | 8.0 | 0.00 | 0.00 | 0.00 | 80 | 1014.8 |
| 20260507193023 | 13 | 235 | 1.6 | 6.4 | 0.00 | 0.00 | 0.00 | 78 | 1014.7 |
| 20260507191527 | 13 | 260 | 3.2 | 8.0 | 0.00 | 0.00 | 0.00 | 76 | 1014.4 |
| 20260507190021 | 14 | 229 | 0.0 | 8.0 | 0.00 | 0.00 | 0.00 | 73 | 1014.3 |
| 20260507184521 | 15 | 255 | 1.6 | 14.5 | 0.00 | 0.00 | 0.00 | 70 | 1014.0 |
| 20260507183020 | 15 | 240 | 0.0 | 11.3 | 0.00 | 0.00 | 0.00 | 71 | 1013.9 |
| 20260507181519 | 15 | 220 | 4.8 | 9.7 | 0.00 | 0.00 | 0.00 | 69 | 1013.9 |
| 20260507180118 | 16 | 205 | 1.6 | 12.9 | 0.00 | 0.00 | 0.00 | 67 | 1013.8 |
| 20260507174538 | 16 | 227 | 4.8 | 12.9 | 0.00 | 0.00 | 0.00 | 64 | 1013.7 |
| 20260507173022 | 17 | 275 | 6.4 | 16.1 | 0.00 | 0.00 | 0.00 | 65 | 1013.7 |
| 20260507171519 | 17 | 259 | 3.2 | 14.5 | 0.00 | 0.00 | 0.00 | 56 | 1013.6 |
| 20260507170015 | 17 | 229 | 9.7 | 20.9 | 0.00 | 0.00 | 0.00 | 57 | 1013.6 |
| 20260507164514 | 17 | 212 | 6.4 | 19.3 | 0.00 | 0.00 | 0.00 | 62 | 1013.7 |
| 20260507163020 | 17 | 214 | 9.7 | 20.9 | 0.00 | 0.00 | 0.00 | 63 | 1013.6 |
| 20260507161516 | 18 | 238 | 9.7 | 19.3 | 0.00 | 0.00 | 0.00 | 61 | 1013.3 |
| 20260507160015 | 18 | 224 | 8.0 | 20.9 | 0.00 | 0.00 | 0.00 | 61 | 1013.2 |
| 20260507154517 | 18 | 260 | 9.7 | 20.9 | 0.00 | 0.00 | 0.00 | 60 | 1013.2 |
| 20260507153017 | 18 | 189 | 6.4 | 19.3 | 0.00 | 0.00 | 0.00 | 59 | 1013.1 |
| 20260507151510 | 18 | 217 | 8.0 | 17.7 | 0.00 | 0.00 | 0.00 | 61 | 1013.2 |
| 20260507150006 | 18 | 252 | 6.4 | 14.5 | 0.00 | 0.00 | 0.00 | 60 | 1013.4 |
| 20260507144506 | 18 | 219 | 6.4 | 19.3 | 0.00 | 0.00 | 0.00 | 59 | 1013.5 |
| 20260507143006 | 18 | 275 | 8.0 | 19.3 | 0.00 | 0.00 | 0.00 | 64 | 1013.6 |
| 20260507141503 | 19 | 249 | 6.4 | 17.7 | 0.00 | 0.00 | 0.00 | 64 | 1013.7 |
| 20260507140114 | 18 | 226 | 8.0 | 19.3 | 0.00 | 0.00 | 0.00 | 64 | 1013.7 |
| 20260507134610 | 18 | 283 | 4.8 | 17.7 | 0.00 | 0.00 | 0.00 | 62 | 1013.7 |
| 20260507133105 | 18 | 266 | 8.0 | 16.1 | 0.00 | 0.00 | 0.00 | 63 | 1013.8 |
| 20260507131658 | 18 | 248 | 6.4 | 16.1 | 0.00 | 0.00 | 0.00 | 64 | 1013.9 |
| 20260507130100 | 18 | 243 | 4.8 | 12.9 | 0.00 | 0.00 | 0.00 | 65 | 1013.8 |
| 20260507124600 | 17 | 268 | 4.8 | 16.1 | 0.00 | 0.00 | 0.00 | 68 | 1014.1 |
| 20260507123054 | 18 | 255 | 6.4 | 16.1 | 0.00 | 0.00 | 0.00 | 67 | 1014.1 |